Weather in Kislovka

Russia / Tomsk District     56°24′47″N   84°52′14″E
temp.,
°C
wind,
m/s
gust,
m/s
humid.,
%
clouds,
%
prec.,
mm/h
press.,
hPa
HPBL,
m
12 may, wed
wed1201:00+11n4126080 0.0 1019382
04:00+7nnw36765 0.0 1018117
07:00+9n247011 0.0 1019134
10:00+16n34445 0.0 1018608
13:00+20n322932 0.0 10172662
16:00+21nnw222577 0.0 10152801
19:00+19nw2230100 0.0 10151897
22:00+14wnw224696 0.0 101532
13 may, thu
thu1301:00+11nne115578 0.0 101510
04:00+10wsw115674 0.0 101411
07:00+11w1354100 0.0 1014100
10:00+15wnw474895 0.0 1014923
13:00+15wnw555094 0.0 10131373
16:00+15wnw5557100 0.1 10131146
19:00+13nnw5668100 0.1 1013889
22:00+9nnw3683100 0.0 1014395
14 may, fri
fri1401:00+8nnw368879 0.0 1015220
04:00+5wnw27934 0.0 1015165
07:00+7nw4107879 0.0 1017427
10:00+8nnw5979100 0.1 10181052
13:00+10nnw6760100 0.4 10201426
16:00+14nw563199 0.0 10191816
19:00+13nw4631100 0.0 10201556
22:00+9w2544100 0.0 102188
15 may, sat
sat1501:00+10sw41046100 0.0 1020360
04:00+11sw6154785 0.1 1018623
07:00+11wsw51254100 0.1 1018562
10:00+16w585360 0.0 1017790
13:00+19w364991 0.0 10171249
16:00+21nw354965 0.4 10161746
19:00+20ssw335435 0.8 1016606
22:00+15ssw1179100 1.4 101515
16 may, sun
sun1601:00+14s4109087 1.7 1013223
04:00+13wsw2693100 0.4 1011172
07:00+14wsw499242 1.8 1011473
10:00+15w488899 0.2 1011726
13:00+17wnw5672100 0.8 10111079
16:00+18nw466695 0.1 10111159
19:00+18n466381 0.1 1011864
22:00+13n12885 0.0 101216